RULLOA Weather Reports


time (UTC)temp
C
wind
direction
speed
KPH
gust
KPH
rain 1hr
cm
rain 24hr
cm
rain mn
cm
humidity
%
barometer
mb
20260503224510 29 292 0.0 0.0 0.00 0.00 0.00 48 1006.6
20260503223006 29 175 0.0 0.0 0.00 0.00 0.00 52 1006.5
20260503221500 29 175 0.0 0.0 0.00 0.00 0.00 49 1006.4
20260503220057 29 175 0.0 0.0 0.00 0.00 0.00 52 1006.4
20260503214552 29 175 0.0 0.0 0.00 0.00 0.00 51 1006.4
20260503213048 29 175 0.0 0.0 0.00 0.00 0.00 41 1006.5
20260503211544 29 170 0.0 0.0 0.00 0.00 0.00 38 1006.6
20260503210039 29 170 0.0 0.0 0.00 0.00 0.00 43 1006.8
20260503204539 29 133 0.0 0.0 0.00 0.00 0.00 54 1006.9
20260503203030 28 130 0.0 0.0 0.00 0.00 0.00 49 1007.0
20260503201525 28 130 0.0 0.0 0.00 0.00 0.00 47 1007.3
20260503200021 29 135 0.0 0.0 0.00 0.00 0.00 52 1007.4
20260503194517 29 147 0.0 0.0 0.00 0.00 0.00 53 1007.6
20260503193031 29 166 0.0 0.0 0.00 0.00 0.00 56 1007.9
20260503191507 29 171 0.0 1.6 0.00 0.00 0.00 54 1008.2
20260503190002 29 134 0.0 11.3 0.00 0.00 0.00 47 1008.5
20260503184559 29 126 0.0 0.0 0.00 0.00 0.00 36 1008.7
20260503183112 28 148 0.0 0.0 0.00 0.00 0.00 18 1008.9
20260503181617 28 135 0.0 0.0 0.00 0.00 0.00 1 1009.2
20260503180045 28 173 0.0 0.0 0.00 0.00 0.00 1 1009.4
20260503174542 28 182 0.0 14.5 0.00 0.00 0.00 1 1009.6
20260503173035 28 164 0.0 0.0 0.00 0.00 0.00 1 1009.9
20260503171531 28 199 0.0 0.0 0.00 0.00 0.00 1 1010.1
20260503081552 26 57 0.0 0.0 0.00 0.10 0.00 1 1008.9
20260503071537 26 57 0.0 0.0 0.00 0.10 0.00 1 1008.9
20260503054507 26 57 0.0 0.0 0.00 0.10 0.00 1 1010.1
20260503053008 26 57 0.0 0.0 0.00 0.10 0.00 1 1010.2
20260503051559 26 57 0.0 0.0 0.00 0.10 0.00 1 1010.2
20260503050054 26 57 0.0 0.0 0.00 0.10 0.00 1 1010.4
20260503044556 26 57 0.0 0.0 0.00 0.10 0.10 1 1010.5
20260503043055 26 57 0.0 0.0 0.00 0.10 0.10 1 1010.6
20260503041557 27 57 0.0 0.0 0.00 0.10 0.10 1 1010.7
20260503040052 27 68 0.0 0.0 0.00 0.10 0.10 1 1010.7
20260503034609 26 76 0.0 0.0 0.00 0.10 0.10 1 1010.8
20260503033058 26 76 0.0 0.0 0.00 0.10 0.10 1 1010.5
20260503031557 26 76 0.0 0.0 0.00 0.10 0.10 1 1010.6
20260503030056 27 74 0.0 0.0 0.00 0.10 0.10 1 1010.4
20260503024551 27 74 0.0 0.0 0.00 0.10 0.10 1 1010.2
20260503023057 27 83 0.0 0.0 0.00 0.10 0.10 1 1010.0
20260503021544 27 84 0.0 0.0 0.00 0.10 0.10 1 1009.9
20260503020039 27 82 0.0 0.0 0.00 0.10 0.10 1 1009.7
20260503014534 27 102 0.0 0.0 0.00 0.10 0.10 1 1009.4
20260503013043 27 103 0.0 0.0 0.00 0.10 0.10 1 1009.3
20260503011533 27 98 0.0 0.0 0.00 0.10 0.10 1 1008.9
20260503010022 27 94 0.0 0.0 0.00 0.10 0.10 1 1008.6
20260503004518 27 97 0.0 0.0 0.00 0.10 0.10 1 1008.4
20260503003013 27 103 0.0 0.0 0.00 0.10 0.10 1 1008.1
20260503001513 27 91 0.0 0.0 0.00 0.10 0.10 1 1007.8
20260503000003 28 92 0.0 0.0 0.00 0.10 0.10 5 1007.6
20260502234603 28 24 0.0 0.0 0.00 0.10 0.10 5 1007.3
20260502233054 28 333 0.0 0.0 0.00 0.10 0.10 12 1007.2
20260502231550 28 286 0.0 0.0 0.00 0.10 0.10 18 1007.0
20260502230046 28 284 0.0 0.0 0.00 0.10 0.10 18 1006.7